Orbital Elements at Epoch 2459200.5 (2020-Dec-17.0) TDB
Reference: JPL 17 (heliocentric ecliptic J2000)
Element | Value | Uncertainty (1-sigma) | Units |
e | .1093780984078863 | 5.1813e-08 | |
a | 2.732331059148365 | 2.2092e-08 | au |
q | 2.433473883677911 | 1.3501e-07 | au |
i | 3.972519453601363 | 6.5781e-06 | deg |
node | 328.8872061944969 | 6.0831e-05 | deg |
peri | 282.9749278994883 | 6.8484e-05 | deg |
M | 198.7698396269952 | 3.3588e-05 | deg |
tp | 2459939.326034251528 (2022-Dec-25.82603425) | 0.00015688 | TDB |
period | 1649.675046624115 4.52 | 2.0008e-05 5.478e-08 | d yr |
n | .2182247956873094 | 2.6467e-09 | deg/d |
Q | 3.031188234618819 | 2.4509e-08 | au |
|
| | Orbit Determination Parameters
Additional Information
|